Flag for Germany Weather past 2 weeks in Güstrow, Mecklenburg-Western Pomerania, Germany

Now
66 °F

Passing clouds.


Feels Like: 66 °F
Forecast: 49 / 69 °F
Wind: 14 mph from Northeast

Location: Laage

Current Time: Sep 2, 2014 at 7:47:22 PM

Latest Report: Sep 2, 2014 at 6:20 PM


Visibility: N/A

Pressure: 30.24 "Hg

Humidity: 49%

Dew point: 46 °F

Location of GüstrowLocation

Historic Weather in Güstrow — Graph

°F

Güstrow temperature yesterday

Maximum temperature yesterday: 64 °F (at 2:00 PM)
Minimum temperature yesterday: 54 °F (at 12:20 AM)
Average temperature yesterday: 59 °F

Past Weeks' High & Low Weather Summary

 TemperatureHumidityPressure
High72 °F (Aug 28, 3:20 PM)100% (Aug 25, 7:20 AM)30.24 "Hg (Aug 25, 7:20 AM)
Low39 °F (Aug 26, 4:20 AM)38% (Aug 28, 3:20 PM)29.53 "Hg (Aug 18, 6:20 PM)
Average57 °F79%29.91 "Hg
* Reported Aug 18 6:20 PM — Sep 2 6:20 PM, Güstrow, Weather by CustomWeather, © 2014

Note: Actual official high and low records may vary slightly from our data, if they occured in-between our weather recording intervals... More about our weather records

Advertising

Güstrow weather history for previous 24 hours

 ConditionsComfort  
Time TempWeatherWind HumidityBarometerVisibility
6:20 PM
Sep 2
66 °FPassing clouds.14 mph49%30.24 "HgN/A
5:20 PM68 °FPassing clouds.14 mph46%30.24 "HgN/A
4:20 PM66 °FScattered clouds.12 mph52%30.24 "HgN/A
3:20 PM68 °FScattered clouds.12 mph49%30.24 "HgN/A
2:20 PM68 °FScattered clouds.13 mph46%30.21 "HgN/A
1:20 PM66 °FScattered clouds.14 mph56%30.21 "HgN/A
12:20 PM64 °FScattered clouds.10 mph64%30.21 "HgN/A
11:20 AM64 °FScattered clouds.12 mph64%30.21 "HgN/A
10:20 AM63 °FPassing clouds.14 mph77%30.21 "HgN/A
9:20 AM61 °FPassing clouds.10 mph83%30.18 "HgN/A
8:20 AM59 °FPassing clouds.7 mph88%30.18 "HgN/A
7:20 AM54 °FPassing clouds.6 mph94%30.15 "HgN/A
6:20 AM54 °FPassing clouds.6 mph94%30.15 "HgN/A
5:20 AM54 °FPassing clouds.6 mph94%30.12 "HgN/A
4:20 AM55 °FPassing clouds.6 mph94%30.12 "HgN/A
3:20 AM55 °FPassing clouds.7 mph94%30.12 "HgN/A
2:20 AM57 °FPartly cloudy.9 mph88%30.12 "HgN/A
1:20 AM57 °FPassing clouds.9 mph94%30.12 "HgN/A
12:20 AM57 °FOvercast.9 mph94%30.12 "HgN/A
11:20 PM
Sep 1
57 °FLight rain. Mostly cloudy.10 mph100%30.12 "HgN/A
10:20 PM59 °FLight rain. Passing clouds.10 mph94%30.09 "HgN/A
9:20 PM59 °FLight rain. Passing clouds.9 mph94%30.09 "Hg4 mi
8:53 PM59 °FLight rain. Partly sunny.9 mph94%30.09 "Hg4 mi
8:20 PM59 °FLight rain. Mostly cloudy.9 mph100%30.07 "Hg4 mi
7:20 PM61 °FPartly sunny.10 mph94%30.07 "HgN/A
Weather by CustomWeather, © 2014

See weather overviewHow to use our weather pages